Погода в Зеленой Роще

Россия / Ульяновская область     54°09′33″N   48°01′21″E
темп.,
°C
ветер,
м/с
пор.,
м/с
влажн.,
%
обл.,
%
осадки,
мм/ч
давл.,
гПа
погр.,
м
18 мая, ср
ср1801:00+6з118929 0.0 100210
04:00+5з2291100 0.0 100215
07:00+7зсз3689100 0.0 1002246
10:00+10зсз477791 0.3 1002984
13:00+8зсз6993100 2.1 10041086
16:00+8ссз599099 2.6 1006767
19:00+9сз48836 0.0 1007810
22:00+7з369276 0.1 1009141
19 мая, чт
чт1901:00+5з36939 0.1 1010128
04:00+5з3890100 0.1 1010174
07:00+6з5989100 0.1 1010862
10:00+8зсз7970100 0.1 10101172
13:00+10з7958100 0.0 10111748
16:00+11з8116584 0.2 10101629
19:00+8зсз5980100 0.3 1010895
22:00+5зюз23928 0.3 101137
20 мая, пт
пт2001:00+6сз248953 0.1 1010141
04:00+3сз35955 0.1 1010106
07:00+5сз3584100 0.0 1011277
10:00+3сз5994100 1.1 1011552
13:00+6сз667489 0.8 10111179
16:00+5ссз5986100 1.6 1011784
19:00+7ссз711785 0.3 10101101
22:00+4сз512875 0.3 1011387
21 мая, сб
сб2101:00+2сз511935 0.0 1011303
04:00+1сз410945 0.0 1011235
07:00+3сз488298 0.0 1010335
10:00+7сз576998 0.4 10091238
13:00+8сз686295 0.9 10071480
16:00+8ссз6955100 1.1 10071734
19:00+7ссз4766100 0.1 10071133
22:00+4сз3580100 0.1 1007108
22 мая, вс
вс2201:00+2зсз369066 0.0 1007137
04:00+1з389199 0.0 1006200
07:00+1зсз61195100 0.5 1006686
10:00+4ссз677280 0.9 10061252
13:00+5ссз566498 0.1 10061451
16:00+7сз575697 0.2 10061659
19:00+6зсз576982 0.1 1007900
22:00+4сз247785 0.1 1008133